Date,TemperatureHighF,TemperatureAvgF,TemperatureLowF,DewpointHighF,DewpointAvgF,DewpointLowF,HumidityHigh,HumidityAvg,HumidityLow,PressureMaxIn,PressureMinIn,WindSpeedMaxMPH,WindSpeedAvgMPH,GustSpeedMaxMPH,PrecipitationSumIn
2013-1-1,27,22,13,24,16,8,92,80,66,30.40,30.30,31,12,37,0.00
2013-1-2,30,21,10,21,12,2,84,66,44,30.54,30.32,32,10,36,0.00
2013-1-3,36,20,7,19,8,-1,75,58,36,30.53,30.38,8,3,10,0.00
2013-1-4,42,23,8,23,11,2,77,61,41,30.39,30.27,9,3,10,0.00
2013-1-5,38,23,13,22,13,6,77,65,46,30.45,30.34,9,4,14,0.00
2013-1-6,41,25,6,26,13,0,82,62,40,30.34,30.04,8,2,13,0.00
2013-1-7,38,26,15,23,17,8,84,70,51,30.15,29.86,9,3,10,0.00
2013-1-8,45,31,19,25,19,13,79,62,30,30.21,29.87,19,5,24,0.00
2013-1-9,56,40,19,32,22,10,77,51,16,30.21,29.81,22,8,30,0.00
2013-1-10,42,39,35,22,20,19,55,47,39,29.80,29.67,15,6,17,0.00
2013-1-11,10,7,4,6,2,-1,87,81,76,30.25,29.65,38,24,41,0.00
2013-1-12,12,6,2,4,1,-3,88,80,69,30.47,30.25,29,6,31,0.00
2013-1-13,17,5,-4,5,-1,-10,87,76,57,30.52,30.44,7,3,10,0.00
2013-1-14,15,6,-4,5,-3,-10,75,66,53,30.54,30.38,7,3,10,0.00
2013-1-15,39,28,14,30,21,6,91,75,56,30.39,30.24,13,4,13,0.01
2013-1-16,46,31,18,27,20,14,87,66,37,30.47,30.21,15,4,17,0.00
2013-1-17,45,29,18,28,19,12,80,65,44,30.52,30.23,9,3,13,0.00
2013-1-18,55,40,28,29,20,13,66,45,19,30.22,29.98,13,4,15,0.00
2013-1-19,44,34,24,24,20,16,82,58,37,30.25,30.07,12,4,14,0.00
2013-1-20,34,23,19,20,17,13,87,78,49,30.52,30.18,37,9,43,0.00
2013-1-21,44,27,15,22,18,13,93,71,38,30.46,30.17,17,5,17,0.00
2013-1-22,48,32,22,25,16,11,73,53,25,30.25,30.16,7,4,10,0.00
2013-1-23,39,29,23,22,18,12,85,63,40,30.27,30.08,6,2,7,0.00
2013-1-24,59,39,22,27,21,15,85,53,19,30.20,29.95,35,3,35,0.00
2013-1-25,50,32,21,33,22,17,87,69,31,30.21,30.04,8,3,11,0.00
2013-1-26,53,38,24,32,24,18,80,62,35,30.03,29.75,12,3,15,0.00
2013-1-27,37,32,27,32,28,24,96,87,71,29.89,29.70,19,6,22,0.00
2013-1-28,28,22,9,26,19,6,95,88,76,29.95,29.88,14,5,17,0.00
2013-1-29,27,12,-2,20,6,-5,88,77,50,30.39,29.93,31,10,40,0.00
2013-1-30,33,20,5,27,16,2,92,84,71,30.30,30.08,22,8,27,0.00
2013-1-31,32,20,6,25,15,3,91,81,70,30.39,30.16,21,7,21,0.00